Hourly Data Report for June 20, 2017

ATIKOKAN (AUT)
ONTARIO

48°45'40.000" N
91°37'41.000" W
389.30 m
6020LPQ
71747
WCH

Download Data

Hourly Data (June 2017)
Hourly Data Report for June 20, 2017
TIME
LST
Temp Definition
°C
Dew Point Definition
°C
Rel Hum Definition
%
Precip. Amount Definition
mm

Wind Dir Definition
10's deg

Wind Spd Definition
km/h
Visibility Definition
km
Stn Press Definition
kPa
Hmdx Definition


Wind Chill Definition


Weather Definition


00:00 11.8 10.2 90 0.0 28 3   96.40     LegendNANA
01:00 11.8 10.2 90 0.3 29 3   96.40     LegendNANA
02:00 11.3 9.9 91 0.2 29 2   96.37     LegendNANA
03:00 11.0 9.6 91 0.0 29 3   96.36     LegendNANA
04:00 10.7 9.4 92 0.0 25 3   96.38     LegendNANA
05:00 11.1 9.8 92 0.0 25 3   96.42     LegendNANA
06:00 11.8 9.6 86 0.0 30 9   96.45     LegendNANA
07:00 11.7 9.7 87 0.0 30 5   96.52     LegendNANA
08:00 12.4 10.2 87 0.0 30 5   96.55     LegendNANA
09:00 13.7 9.8 77 0.3 2 7   96.58     LegendNANA
10:00 14.9 10.4 74 0.0 35 9   96.62     LegendNANA
11:00 15.3 9.2 67 0.0 32 7   96.65     LegendNANA
12:00 16.5 8.3 58 0.0 32 10   96.65     LegendNANA
13:00 16.6 8.0 57 0.0 30 8   96.67     LegendNANA
14:00 16.9 8.5 58 0.0 30 9   96.70     LegendNANA
15:00 16.9 7.9 55 0.0 31 9   96.72     LegendNANA
16:00 17.4 7.2 51 0.0 32 9   96.71     LegendNANA
17:00 17.4 7.3 52 0.0 31 10   96.70     LegendNANA
18:00 18.1 6.4 46 0.0 29 10   96.68     LegendNANA
19:00 17.9 7.2 50 0.0 29 5   96.67     LegendNANA
20:00 13.0 8.6 75 0.0 27 2   96.68     LegendNANA
21:00 10.0 8.1 88 0.0   0   96.73     LegendNANA
22:00 8.9 7.6 92 0.0   0   96.73     LegendNANA
23:00 7.9 6.9 93 0.0   0   96.75     LegendNANA

Notes on Data Quality.

Legend

  • E = Estimated
  • M = Missing
  • NA = Not Available*
  • [empty] = Indicates an unobserved value
Date modified: